Regional Weather Roundup
Issued by NWS

Home | Current Version | Previous Version | Text Only | Print | Product List | Glossary On
Versions: 1 2 3 4 5 6 7 8 9 10 11 12 13 14 15 16 17 18 19 20 21 22 23 24 25 26 27 28 29 30 31 32 33 34 35 36 37 38 39 40 41 42 43 44 45 46 47 48 49 50
000
ASUS45 KCYS 251610
RWRWY

WYOMING REGIONAL WEATHER ROUNDUP
NATIONAL WEATHER SERVICE CHEYENNE WY
1000 AM MDT MON MAY 25 2015

NOTE:  "FAIR" INDICATES FEW OR NO CLOUDS BELOW 12,000 FEET
WITH NO SIGNIFICANT WEATHER AND/OR OBSTRUCTIONS TO VISIBILITY.

WYZ001-251700-
YELLOWSTONE NATIONAL PARK

CITY           SKY/WX    TMP DP  RH WIND       PRES   REMARKS
LK YELLOWSTONE   N/A     45  35  68 VRB3      30.04S
W YELLOWSTONE  NOT AVBL

$$
WYZ002>013-054>058-071-098>099-251700-
NORTHERN WYOMING

CITY           SKY/WX    TMP DP  RH WIND       PRES   REMARKS
JACKSON        CLOUDY    50  39  66 CALM      29.99F
CODY           CLOUDY    54  45  71 NW6       29.96S
GREYBULL       CLOUDY    55  48  77 CALM      29.92S
WORLAND        CLOUDY    54  48  80 CALM      29.92S
SHERIDAN       CLOUDY    55  48  77 VRB3      29.93S
BUFFALO        CLOUDY    50  46  86 N12       29.95R
GILLETTE       CLOUDY    52  49  89 N14       29.90S
HULETT         RAIN      50  50 100 N8        29.90S
NEWCASTLE      CLOUDY    55  45  67 NW12      29.86S

$$
WYZ014>020-022>026-101>103-251700-
CENTRAL WYOMING

CITY           SKY/WX    TMP DP  RH WIND       PRES   REMARKS
BIG PINEY      PTSUNNY   50  41  71 VRB6      30.02S
PINEDALE       CLOUDY    46  37  71 SW5       30.03S
DUBOIS         PTSUNNY   50  37  62 SE7       29.98F
LANDER         CLOUDY    51  44  77 SE6       29.96S
RIVERTON       CLOUDY    50  43  77 CALM      29.98S
CASPER         CLOUDY    52  43  71 W10       29.94S
DOUGLAS        LGT RAIN  50  48  93 NW8       29.92R

$$
WYZ021-027>030-104>119-251700-
SOUTHERN WYOMING

CITY           SKY/WX    TMP DP  RH WIND       PRES   REMARKS
EVANSTON       CLOUDY    46  43  89 SW8       30.03S
KEMMERER       CLOUDY    45  41  87 W6        30.03S
FORT BRIDGER   CLOUDY    46  46 100 CALM      30.06R
ROCK SPRINGS   CLOUDY    46  40  79 SW6       30.02S
DIXON          CLOUDY    47  41  78 W3        30.04S
RAWLINS        CLOUDY    47  39  74 W10       29.99S
SARATOGA       CLOUDY    46  39  76 W12G18    30.00S
LARAMIE        CLOUDY    45  35  68 CALM      29.96R
CHEYENNE       CLOUDY    49  40  71 NW16      29.92R
TORRINGTON     LGT RAIN  51  49  92 NW8       29.86S
PINE BLUFFS    LGT RAIN  46  45  93 NW15      29.90S

$$



USA.gov is the U.S. government's official web portal to all federal, state and local government web resources and services.